Weather History for New Bedford, MA

Change the Weather History Date:

Wednesday, February 5, 2014

  Actual Average Record
Temperature  
Mean Temperature 30 °F -  
Max Temperature 34 °F 36 °F 66 °F (1991)
Min Temperature 25 °F 21 °F 6 °F (1978)
Degree Days  
Heating Degree Days 36    
Moisture  
Dew Point 29 °F    
Average Humidity 91    
Maximum Humidity 96    
Minimum Humidity 85    
Precipitation  
Precipitation 0.66 in - - ()
Sea Level Pressure  
Sea Level Pressure 29.88 in    
Wind  
Wind Speed 7 mph (NNE)    
Max Wind Speed 18 mph    
Max Gust Speed 24 mph    
Visibility 4 miles    
Events Fog , Rain , Snow    
Averages and records for this station are not official NWS values.
T = Trace of Precipitation, MM = Missing Value Source: NWS Daily Summary

Daily Weather History Graph

Daily Weather History Graph

Search for Another Location

Airport:

Trip Planner

Search our weather history database for the weather conditions in past years. The results will help you decide how hot, cold, wet, or windy it might be!

Date:

Astronomy

Feb. 05, 2014 Rise Set
Actual Time 6:51 AM EST 5:04 PM EST
Civil Twilight 6:22 AM EST 5:33 PM EST
Nautical Twilight 5:49 AM EST 6:06 PM EST
Astronomical Twilight 5:17 AM EST 6:39 PM EST
Moon 9:58 AM EST (2/5) No Moon Set
Length of Visible Light 11h 11m
Length of Day
10h 12m
Waxing Crescent, 39% of the Moon is Illuminated
Feb 5
Waxing Crescent
Feb 6
First Quarter
Feb 14
Full
Feb 22
Last Quarter
Mar 1
New

Hourly Weather History & Observations

Time (EST) Temp. Windchill Dew Point Humidity Pressure Visibility Wind Dir Wind Speed Gust Speed Precip Events Conditions
12:53 AM 25.0 °F - 23.0 °F 92% 30.28 in 8.0 mi Calm Calm - N/A   Clear
1:53 AM 25.0 °F - 23.0 °F 92% 30.24 in 6.0 mi Calm Calm - N/A   Clear
2:53 AM 27.0 °F 20.5 °F 25.0 °F 92% 30.23 in 8.0 mi North 5.8 mph - N/A   Overcast
3:53 AM 28.0 °F - 26.1 °F 92% 30.23 in 8.0 mi Calm Calm - N/A   Overcast
4:53 AM 28.9 °F 21.9 °F 25.0 °F 85% 30.18 in 10.0 mi ENE 6.9 mph - N/A   Overcast
5:16 AM 28.9 °F 22.8 °F 25.0 °F 85% 30.15 in 2.5 mi East 5.8 mph - 0.00 in Snow Light Snow
5:24 AM 28.0 °F 22.8 °F 26.1 °F 92% 30.16 in 1.0 mi East 4.6 mph - 0.01 in Snow Light Snow
5:27 AM 28.0 °F 22.8 °F 26.1 °F 92% 30.16 in 0.8 mi ENE 4.6 mph - 0.01 in Snow Light Snow
5:49 AM 28.4 °F 20.4 °F 26.6 °F 93% 30.13 in 0.5 mi ENE 8.1 mph - 0.04 in Fog , Snow Snow
5:53 AM 28.0 °F 19.3 °F 26.1 °F 92% 30.14 in 0.5 mi NE 9.2 mph - 0.05 in Fog , Snow Snow
6:01 AM 28.0 °F 19.3 °F 26.1 °F 92% 30.12 in 0.5 mi NE 9.2 mph - 0.01 in Fog , Snow Snow
6:53 AM 28.9 °F 23.9 °F 27.0 °F 92% 30.11 in 0.8 mi NE 4.6 mph - 0.11 in Snow Light Snow
7:06 AM 28.9 °F 22.8 °F 27.0 °F 92% 30.10 in 1.0 mi ENE 5.8 mph - 0.03 in Snow Light Snow
7:22 AM 28.9 °F 21.1 °F 27.0 °F 92% 30.07 in 0.5 mi NE 8.1 mph - 0.07 in Fog , Snow Light Snow
7:53 AM 28.9 °F 21.9 °F 27.0 °F 92% 30.07 in 1.0 mi NNE 6.9 mph - 0.11 in Snow Light Snow
8:02 AM 28.9 °F 21.9 °F 27.0 °F 92% 30.07 in 0.8 mi NNE 6.9 mph - 0.01 in   Mist
8:13 AM 30.0 °F 24.1 °F 28.0 °F 92% 30.07 in 0.8 mi North 5.8 mph - 0.02 in   Overcast
8:27 AM 30.0 °F 23.2 °F 28.0 °F 92% 30.06 in 1.0 mi North 6.9 mph - 0.04 in Snow Light Snow
8:35 AM 30.0 °F 22.4 °F 28.0 °F 92% 30.07 in 0.8 mi North 8.1 mph - 0.05 in Snow Light Snow
8:53 AM 30.0 °F 21.1 °F 28.0 °F 92% 30.03 in 0.8 mi NNE 10.4 mph - 0.06 in Snow Light Snow
9:35 AM 30.9 °F 22.8 °F 28.9 °F 92% 29.97 in 1.0 mi NNE 9.2 mph - 0.05 in Snow Light Snow
9:43 AM 30.9 °F 22.2 °F 28.9 °F 92% 29.96 in 1.2 mi NE 10.4 mph - 0.07 in Snow Light Snow
9:51 AM 32.0 °F 23.6 °F 30.2 °F 93% 29.95 in 1.8 mi NNE 10.4 mph - 0.09 in Snow Light Snow
9:53 AM 32.0 °F 23.6 °F 30.0 °F 92% 29.96 in 1.8 mi NNE 10.4 mph - 0.10 in Snow Light Snow
10:02 AM 32.0 °F 23.0 °F 30.0 °F 92% 29.95 in 2.0 mi NE 11.5 mph - 0.03 in Snow Light Snow
10:32 AM 33.1 °F 23.9 °F 30.0 °F 89% 29.92 in 3.0 mi ENE 12.7 mph - 0.10 in Snow Light Snow
10:53 AM 33.1 °F 23.9 °F 30.0 °F 89% 29.90 in 6.0 mi ENE 12.7 mph - 0.12 in Rain Light Rain
11:15 AM 33.1 °F 23.9 °F 30.9 °F 92% 29.85 in 9.0 mi ENE 12.7 mph 21.9 mph 0.01 in Rain Light Rain
11:53 AM 33.1 °F 22.6 °F 30.9 °F 92% 29.77 in 5.0 mi ENE 16.1 mph 23.0 mph 0.02 in Rain Light Rain
12:53 PM 33.1 °F 21.9 °F 30.9 °F 92% 29.66 in 10.0 mi ENE 18.4 mph 24.2 mph 0.00 in Rain Light Rain
1:53 PM 34.0 °F 25.5 °F 30.9 °F 89% 29.62 in 10.0 mi NE 11.5 mph 21.9 mph 0.03 in Rain Light Rain
2:53 PM 34.0 °F 25.0 °F 30.9 °F 89% 29.59 in 4.0 mi NE 12.7 mph - 0.02 in Rain Light Rain
2:57 PM 34.0 °F 26.0 °F 32.0 °F 92% 29.59 in 2.0 mi ENE 10.4 mph - 0.00 in Rain Light Rain
3:06 PM 34.0 °F 25.0 °F 32.0 °F 92% 29.59 in 1.8 mi NE 12.7 mph - 0.00 in Rain Light Rain
3:17 PM 34.0 °F 25.5 °F 32.0 °F 92% 29.58 in 2.0 mi ENE 11.5 mph - 0.00 in Rain Light Rain
3:29 PM 34.0 °F 27.2 °F 32.0 °F 92% 29.59 in 1.8 mi NNE 8.1 mph - 0.00 in   Overcast
3:53 PM 34.0 °F 28.0 °F 32.0 °F 92% 29.58 in 1.8 mi NNE 6.9 mph - 0.01 in Rain Light Rain
4:08 PM 34.0 °F 28.0 °F 33.1 °F 96% 29.59 in 2.5 mi North 6.9 mph - 0.01 in Rain Light Rain
4:38 PM 34.0 °F 28.0 °F 32.0 °F 92% 29.60 in 4.0 mi North 6.9 mph - 0.01 in Rain Light Rain
4:53 PM 34.0 °F 27.2 °F 32.0 °F 92% 29.59 in 5.0 mi North 8.1 mph - 0.01 in   Overcast
5:53 PM 33.1 °F 24.9 °F 32.0 °F 96% 29.61 in 5.0 mi North 10.4 mph - 0.00 in   Overcast
6:53 PM 33.1 °F 26.1 °F 30.9 °F 92% 29.64 in 5.0 mi North 8.1 mph - 0.00 in Snow Light Snow
7:50 PM 33.8 °F 27.0 °F 30.2 °F 87% 29.66 in 4.0 mi North 8.1 mph - 0.00 in Snow Light Snow
7:53 PM 33.1 °F 26.9 °F 30.9 °F 92% 29.67 in 3.0 mi NNW 6.9 mph - 0.00 in Snow Light Snow
8:07 PM 33.1 °F 26.1 °F 30.9 °F 92% 29.67 in 6.0 mi North 8.1 mph - 0.00 in Snow Light Snow
8:13 PM 33.1 °F 23.4 °F 30.0 °F 89% 29.68 in 2.5 mi NNW 13.8 mph 21.9 mph 0.00 in Snow Light Snow
8:28 PM 30.9 °F 22.2 °F 28.0 °F 89% 29.69 in 9.0 mi North 10.4 mph 19.6 mph 0.00 in   Overcast
8:32 PM 30.9 °F 22.2 °F 28.0 °F 89% 29.69 in 9.0 mi North 10.4 mph - 0.00 in   Overcast
8:53 PM 30.9 °F 23.5 °F 28.0 °F 89% 29.73 in 10.0 mi North 8.1 mph - 0.00 in   Overcast
9:06 PM 30.9 °F 23.5 °F 28.0 °F 89% 29.74 in 9.0 mi North 8.1 mph - N/A   Overcast
9:53 PM 30.0 °F 23.2 °F 28.0 °F 92% 29.78 in 3.0 mi North 6.9 mph - 0.01 in Snow Light Snow
10:33 PM 30.0 °F 23.2 °F 28.0 °F 92% 29.80 in 4.0 mi North 6.9 mph - 0.00 in Snow Light Snow
10:46 PM 28.9 °F 20.4 °F 27.0 °F 92% 29.82 in 2.0 mi North 9.2 mph - 0.00 in Snow Light Snow
10:53 PM 28.9 °F 19.8 °F 26.1 °F 89% 29.83 in 2.5 mi North 10.4 mph 18.4 mph 0.00 in Snow Light Snow
11:19 PM 28.0 °F 20.0 °F 25.0 °F 88% 29.86 in 3.0 mi North 8.1 mph - 0.01 in Snow Light Snow
11:41 PM 28.0 °F 20.8 °F 25.0 °F 88% 29.87 in 3.0 mi North 6.9 mph - 0.01 in Snow Light Snow
11:53 PM 27.0 °F 18.7 °F 24.1 °F 89% 29.89 in 4.0 mi North 8.1 mph - 0.01 in Snow Light Snow